Weather History for Athens Eleftherios, Greece

Change the Weather History Date:

Sunday, February 17, 2013

  Actual Average (LGEL) Record (LGEL)
Temperature  
Mean Temperature 45 °F -  
Max Temperature 46 °F 54 °F 68 °F (2014)
Min Temperature 42 °F 39 °F 26 °F (2008)
Degree Days  
Heating Degree Days 20    
Moisture  
Dew Point 41 °F    
Average Humidity 82    
Maximum Humidity 93    
Minimum Humidity 71    
Precipitation  
Precipitation 0.00 in - - ()
Sea Level Pressure  
Sea Level Pressure 30.02 in    
Wind  
Wind Speed 8 mph ()    
Max Wind Speed 20 mph    
Max Gust Speed -    
Visibility 5.7 miles    
Events Rain    
Averages and records for this station are not official NWS values.
T = Trace of Precipitation, MM = Missing Value Source: Averaged Metar Reports

Daily Weather History Graph

Daily Weather History Graph

Search for Another Location

Airport:

Trip Planner

Search our weather history database for the weather conditions in past years. The results will help you decide how hot, cold, wet, or windy it might be!

Date:

Astronomy

Feb. 17, 2013 Rise Set
Actual Time 7:11 AM EET 6:05 PM EET
Civil Twilight 6:44 AM EET 6:32 PM EET
Nautical Twilight 6:14 AM EET 7:02 PM EET
Astronomical Twilight 5:43 AM EET 7:33 PM EET
Moon 10:59 AM EET (2/17) 12:36 AM EET (2/17)
Length of Visible Light 11h 47m
Length of Day
10h 53m
Waxing Crescent, 46% of the Moon is Illuminated
Feb 17
Waxing Crescent
Feb 17
First Quarter
Feb 25
Full
Mar 4
Last Quarter
Mar 11
New

Hourly Weather History & Observations

Time (EET) Temp. Windchill Dew Point Humidity Pressure Visibility Wind Dir Wind Speed Gust Speed Precip Events Conditions
12:20 AM 46.4 °F 45.2 °F 42.8 °F 87% 30.04 in 6.2 mi Variable 3.5 mph - N/A Rain Light Rain
12:50 AM 46.4 °F 45.2 °F 44.6 °F 93% 30.01 in 6.2 mi Variable 3.5 mph - N/A Rain Light Rain
1:20 AM 46.4 °F - 44.6 °F 93% 30.01 in 6.2 mi Variable 1.2 mph - N/A Rain Light Rain
1:50 AM 46.4 °F - 44.6 °F 93% 30.01 in 6.2 mi Variable 1.2 mph - N/A Rain Light Rain
2:20 AM 46.4 °F 43.5 °F 44.6 °F 93% 30.01 in 6.2 mi NNE 5.8 mph - N/A Rain Light Rain
2:50 AM 46.4 °F 45.2 °F 44.6 °F 93% 30.01 in 6.2 mi Variable 3.5 mph - N/A Rain Light Rain
3:20 AM 46.4 °F - 44.6 °F 93% 30.01 in 6.2 mi Variable 2.3 mph - N/A Rain Light Rain
3:50 AM 46.4 °F 43.5 °F 44.6 °F 93% 29.98 in 5.0 mi North 5.8 mph - N/A Rain Light Rain
4:20 AM 46.4 °F 41.5 °F 44.6 °F 93% 29.98 in 5.0 mi NNE 10.4 mph - N/A Rain Light Rain
4:50 AM 46.4 °F 41.1 °F 44.6 °F 93% 29.98 in 5.6 mi NNE 11.5 mph - N/A Rain Light Rain
5:20 AM 46.4 °F 40.7 °F 44.6 °F 93% 29.98 in 5.0 mi NNE 12.7 mph - N/A Rain Rain
5:50 AM 46.4 °F 40.7 °F 42.8 °F 87% 29.98 in 5.0 mi NNE 12.7 mph - N/A Rain Rain
6:20 AM 46.4 °F 40.1 °F 42.8 °F 87% 29.98 in 5.6 mi NNE 15.0 mph - N/A Rain Light Rain
6:50 AM 46.4 °F 41.5 °F 41.0 °F 81% 29.98 in 5.6 mi NNE 10.4 mph - N/A Rain Light Rain
7:20 AM 46.4 °F 42.4 °F 41.0 °F 81% 29.98 in 5.6 mi North 8.1 mph - N/A Rain Light Rain
7:50 AM 46.4 °F 41.1 °F 42.8 °F 87% 29.98 in 5.6 mi North 11.5 mph - N/A Rain Light Rain
8:20 AM 46.4 °F 40.7 °F 41.0 °F 81% 30.01 in 5.6 mi NNE 12.7 mph - N/A Rain Light Rain
8:50 AM 46.4 °F 41.1 °F 41.0 °F 81% 30.01 in 5.6 mi NNE 11.5 mph - N/A Rain Light Rain
9:20 AM 46.4 °F 41.5 °F 42.8 °F 87% 30.01 in 5.6 mi North 10.4 mph - N/A Rain Light Rain
9:50 AM 46.4 °F 41.5 °F 41.0 °F 81% 30.01 in 5.6 mi NNE 10.4 mph - N/A Rain Light Rain
10:20 AM 46.4 °F 41.5 °F 42.8 °F 87% 30.01 in 6.2 mi NNE 10.4 mph - N/A Rain Light Rain
10:50 AM 46.4 °F 41.5 °F 42.8 °F 87% 30.01 in 3.7 mi North 10.4 mph - N/A Rain Rain
11:20 AM 46.4 °F 41.9 °F 41.0 °F 81% 30.01 in 5.6 mi North 9.2 mph - N/A Rain Light Rain
11:50 AM 46.4 °F 40.7 °F 41.0 °F 81% 30.01 in 5.6 mi North 12.7 mph - N/A Rain Light Rain
12:20 PM 46.4 °F 40.4 °F 41.0 °F 81% 30.01 in 5.6 mi North 13.8 mph - N/A Rain Light Rain
12:50 PM 46.4 °F 39.5 °F 39.2 °F 76% 30.01 in 6.2 mi North 17.3 mph - N/A Rain Light Rain
1:20 PM 46.4 °F 39.8 °F 39.2 °F 76% 30.01 in 6.2 mi North 16.1 mph - N/A   Scattered Clouds
1:50 PM 46.4 °F 39.0 °F 37.4 °F 71% 30.01 in 6.2 mi North 19.6 mph - N/A   Mostly Cloudy
2:20 PM 46.4 °F 40.4 °F 37.4 °F 71% 30.01 in 6.2 mi North 13.8 mph - N/A   Mostly Cloudy
2:50 PM 46.4 °F 41.1 °F 37.4 °F 71% 30.01 in 6.2 mi North 11.5 mph - N/A   Mostly Cloudy
3:20 PM 46.4 °F 39.0 °F 39.2 °F 76% 30.01 in 3.7 mi NNE 19.6 mph - N/A Rain Light Rain
3:50 PM 44.6 °F 37.4 °F 41.0 °F 87% 30.01 in 2.5 mi North 16.1 mph - N/A Rain Light Rain
4:20 PM 44.6 °F 37.8 °F 41.0 °F 87% 30.01 in 2.5 mi NNE 15.0 mph - N/A Rain Light Rain
4:50 PM 44.6 °F 38.1 °F 41.0 °F 87% 30.04 in 5.6 mi NNE 13.8 mph - N/A Rain Light Rain
5:20 PM 46.4 °F 40.4 °F 39.2 °F 76% 30.01 in 6.2 mi NNE 13.8 mph - N/A   Mostly Cloudy
5:50 PM 46.4 °F 42.9 °F 37.4 °F 71% 30.04 in 6.2 mi North 6.9 mph - N/A   Scattered Clouds
6:20 PM 44.6 °F 40.7 °F 37.4 °F 76% 30.04 in 6.2 mi North 6.9 mph - N/A   Partly Cloudy
6:50 PM 44.6 °F 41.4 °F 37.4 °F 76% 30.04 in 6.2 mi North 5.8 mph - N/A   Partly Cloudy
7:20 PM 44.6 °F 41.4 °F 37.4 °F 76% 30.04 in 6.2 mi North 5.8 mph - N/A   Scattered Clouds
7:50 PM 44.6 °F 40.2 °F 37.4 °F 76% 30.04 in 6.2 mi North 8.1 mph - N/A   Scattered Clouds
8:20 PM 44.6 °F 41.4 °F 37.4 °F 76% 30.06 in 6.2 mi North 5.8 mph - N/A   Scattered Clouds
8:50 PM 44.6 °F 40.2 °F 37.4 °F 76% 30.06 in 6.2 mi North 8.1 mph - N/A   Scattered Clouds
9:20 PM 44.6 °F 40.2 °F 37.4 °F 76% 30.06 in 6.2 mi North 8.1 mph - N/A   Scattered Clouds
9:50 PM 44.6 °F 39.7 °F 37.4 °F 76% 30.06 in 6.2 mi North 9.2 mph - N/A   Scattered Clouds
10:20 PM 44.6 °F 41.4 °F 35.6 °F 71% 30.06 in 6.2 mi NNW 5.8 mph - N/A   Scattered Clouds
10:50 PM 44.6 °F 38.8 °F 37.4 °F 76% 30.06 in 6.2 mi North 11.5 mph - N/A   Scattered Clouds
11:20 PM 44.6 °F 40.7 °F 37.4 °F 76% 30.06 in 6.2 mi North 6.9 mph - N/A   Scattered Clouds
11:50 PM 42.8 °F 41.1 °F 37.4 °F 81% 30.06 in 6.2 mi NW 3.5 mph - N/A   Partly Cloudy